Location: Karlsruhe
(49.0131°N, 8.3874°E)
Time: 14:09:44
(UTC+02:00)

ISS - Pass Details

Date: 08 January 2018
Orbit: 402 x 409 km, 51.6° (Epoch: 21 August)

Event Time Altitude Azimuth Distance (km) Brightness Sun altitude
Exits shadow 05:12:41 15° 71° (ENE) 1,226 -0.7 -29.6°
Drops below altitude 10° 05:13:25 10° 74° (ENE) 1,513 -0.1 -29.5°
Sets 05:15:34 0° 80° (E) 2,382 1.2 -29.2°
